Regional Weather Roundup
Issued by NWS Albany, NY

Home | Current Version | Previous Version | Graphics & Text | Print | Product List | Glossary Off
Versions: 1 2 3 4 5 6 7 8 9 10 11 12 13 14 15 16 17 18 19 20 21 22 23 24 25 26 27 28 29 30 31 32 33 34 35 36 37 38 39 40 41 42 43 44 45 46 47 48 49 50

000
ASUS41 KALY 272210
RWRALY

NEW YORK STATE HOURLY WEATHER ROUNDUP
NATIONAL WEATHER SERVICE ALBANY NY
500 PM EST TUE JAN 27 2015

NOTE: "FAIR" INDICATES FEW OR NO CLOUDS BELOW 12,000 FEET WITH NO
SIGNIFICANT WEATHER AND/OR NO OBSTRUCTIONS TO VISIBILITY.

NYZ032-033-038>043-046>054-057>066-NYZ062>081-272300-
EAST


CITY           SKY/WX    TMP DP  RH WIND       PRES   REMARKS
ALBANY         FLURRIES  11   1  64 N10       29.83R WCI  -3
GLENS FALLS    CLOUDY    13   1  59 NE17G25   29.84S BLWGSNOWWCI  -4
POUGHKEEPSIE   CLOUDY    20  11  68 N10       29.72R WCI   9
NEWBURGH       MOCLDY    23  18  80 NE9       29.69R WCI  13
MONTGOMERY     MOCLDY    23  14  68 NE5       29.68R WCI  17
WHITE PLAINS   CLOUDY    22  12  65 N13G23    29.64S WCI  10
ISLIP          CLOUDY    22  12  65 NW29G37   29.62R WCI   4
NEW YORK CITY  CLOUDY    25  16  68 N15       29.67R WCI  13
CENTRAL PARK   CLOUDY    26  15  63 N9G17     29.69R WCI  17
$$

NYZ005>009-017-018-044>046-055-056-272300-
CENTRAL


CITY           SKY/WX    TMP DP  RH WIND       PRES   REMARKS
FULTON         CLEAR     14   0  53 N13       30.01R WCI   0
SYRACUSE       MOCLDY    12   1  61 NW15      29.98R WCI  -4
ROME           MOCLDY    16   1  51 NW14      29.93R WCI   2
ELMIRA         MOCLDY    13   4  67 N5        29.95R WCI   5
BINGHAMTON     PTCLDY     9   4  80 NW17G26   29.79R WCI  -9
MONTICELLO     MOCLDY    16   9  73 NW15      29.68R WCI   1
$$

NYZ026>034-041>043-272300-
NORTH


CITY           SKY/WX    TMP DP  RH WIND       PRES   REMARKS
WATERTOWN      CLEAR     14  -4  44 N12       30.04R WCI   0
FORT DRUM      NOT AVBL
MASSENA        PTCLDY    12  -6  44 E5        30.07S WCI   4
SARANAC LAKE   CLOUDY     5  -5  63 N8        29.83R WCI  -8
PLATTSBURGH    LGT SNOW   9   2  73 N21G35    29.98S VSB 1   WCI -11
$$

NYZ001>004-010>016-019>021-272300-
WEST


CITY           SKY/WX    TMP DP  RH WIND       PRES   REMARKS
NIAGARA FALLS  MOCLDY    17   4  56 CALM      30.08R
BUFFALO        PTCLDY    15   3  59 N7        30.07R WCI   5
DUNKIRK        CLOUDY    18   9  68 N10       30.08R WCI   6
JAMESTOWN      CLOUDY    14   9  79 N10       29.96R WCI   1
WELLSVILLE     CLOUDY    13   4  67 N12G24    29.89R WCI  -1
ROCHESTER      MOCLDY    17   3  54 N8        30.05R WCI   7
PENN YAN       CLEAR     12   1  61 NW9       29.98R WCI   0
$$

             KEY
       WCI = WIND CHILL INDEX
       VSB = VISIBILITY
       HX  = HEAT INDEX
$$



USA.gov is the U.S. government's official web portal to all federal, state and local government web resources and services.